Flag for U.S.A. Weather past 2 weeks in Oberlin, Ohio, U.S.A.

Now
67 °F

Light rain. Mostly cloudy.


Feels Like: 67 °F
Forecast: 67 / 86 °F
Wind: 9 mph from South

Location: Lorain County Regional Airport

Current Time: Sep 4, 2015 at 6:27:15 AM

Latest Report: Sep 4, 2015 at 5:53 AM


Visibility: 9 mi

Pressure: 29.98 "Hg

Humidity: 90%

Dew point: 64 °F

Location of OberlinLocation

Historic Weather in Oberlin — Graph

°F

Oberlin temperature yesterday

Maximum temperature yesterday: 87 °F (at 2:53 PM)
Minimum temperature yesterday: 66 °F (at 11:53 PM)
Average temperature yesterday: 75 °F

Past Weeks' High & Low Weather Summary

 TemperatureHumidityPressure
High87 °F (Sep 2, 3:53 PM)97% (Aug 28, 12:53 AM)30.22 "Hg (Aug 28, 12:53 AM)
Low50 °F (Aug 28, 7:00 AM)38% (Aug 21, 1:53 PM)29.74 "Hg (Aug 20, 4:53 AM)
Average68 °F75%30.05 "Hg
* Reported Aug 20 4:53 AM — Sep 4 4:53 AM, Oberlin, Weather by CustomWeather, © 2015

Note: Actual official high and low records may vary slightly from our data, if they occured in-between our weather recording intervals... More about our weather records

Advertising

Oberlin weather history for previous 24 hours

 ConditionsComfort  
Time TempWeatherWind HumidityBarometerVisibility
4:53 AM
Fri, Sep 4
66 °FLight rain. Fog.9 mph96%29.98 "Hg4 mi
3:53 AM66 °FLight rain. Passing clouds.6 mph96%29.98 "Hg9 mi
2:53 AM66 °FRain. Fog.9 mph96%30.01 "Hg4 mi
1:53 AM66 °FLight rain. Fog.5 mph93%29.98 "Hg6 mi
12:53 AM66 °FLight rain. Passing clouds.3 mph93%29.99 "Hg10 mi
11:53 PM
Thu, Sep 3
66 °FLight rain. Passing clouds.6 mph93%30.01 "Hg9 mi
10:53 PM67 °FRain. Fog.No wind90%30.01 "Hg4 mi
9:53 PM71 °FPartly cloudy.12 mph90%29.99 "Hg10 mi
8:53 PM71 °FPassing clouds.5 mph87%29.94 "Hg10 mi
7:53 PM74 °FSunny.No wind79%29.92 "Hg10 mi
6:53 PM77 °FSunny.8 mph69%29.95 "Hg10 mi
5:53 PM85 °FSunny.No wind50%29.93 "Hg10 mi
4:53 PM86 °FSunny.6 mph57%29.92 "Hg10 mi
3:53 PM84 °FSunny.7 mph59%29.92 "Hg10 mi
2:53 PM87 °FPassing clouds.5 mph53%29.93 "Hg10 mi
1:53 PM86 °FPassing clouds.7 mph57%29.94 "Hg10 mi
12:53 PM86 °FSunny.7 mph57%29.97 "Hg9 mi
11:53 AM85 °FSunny.6 mph57%29.97 "Hg8 mi
10:53 AM81 °FSunny.No wind67%29.98 "Hg8 mi
9:53 AM77 °FSunny.5 mph77%29.99 "Hg8 mi
8:53 AM73 °FSunny.3 mph84%29.99 "Hg7 mi
7:53 AM69 °FFog.3 mph90%29.99 "Hg5 mi
6:53 AM68 °FFog.No wind90%29.98 "Hg5 mi
Weather by CustomWeather, © 2015

See weather overviewHow to use our weather pages